This is the latest recevied weather packets stored in our database for station/object OE-11138. If no packets are shown the sender has not sent any weather packets the latest 10 day(s).
| Time | Temp. | Humidity | Pressure | Rain* | Wind** | Luminosity | Snow |
|---|---|---|---|---|---|---|---|
| 1787637922 | 7.78° C | 91% | 709.6 hPa | 1.78 mm | - | 12 W/m² | - |
| 1787637322 | 7.78° C | 91% | 709.4 hPa | 1.52 mm | - | 12 W/m² | - |
| 1787636494 | 7.22° C | 91% | 709.6 hPa | 1.02 mm | - | 12 W/m² | - |
| 1787636121 | 7.78° C | 89% | 709.2 hPa | 0.76 mm | - | 12 W/m² | - |
| 1787635521 | 7.78° C | 88% | 709.1 hPa | 0.25 mm | - | 6 W/m² | - |
| 1787634695 | 7.78° C | 84% | 709.1 hPa | 0.25 mm | - | 6 W/m² | - |
| 1787634322 | 7.78° C | 83% | 709 hPa | 0 mm | - | 6 W/m² | - |
| 1787633722 | 7.78° C | 84% | 709 hPa | 0 mm | - | 0 W/m² | - |
| 1787632895 | 7.78° C | 82% | 709 hPa | 0 mm | - | 0 W/m² | - |
| 1787632522 | 8.33° C | 81% | 709 hPa | 0 mm | - | 0 W/m² | - |
| 1787631922 | 8.33° C | 80% | 709.1 hPa | 0 mm | - | 0 W/m² | - |
| 1787631095 | 8.89° C | 76% | 709.2 hPa | 0 mm | - | 0 W/m² | - |
| 1787630722 | 8.33° C | 78% | 709.4 hPa | 0 mm | - | 0 W/m² | - |
| 1787630122 | 8.89° C | 76% | 709.8 hPa | 0 mm | - | 0 W/m² | - |
| 1787629522 | 8.33° C | 79% | 709.8 hPa | 0 mm | - | 0 W/m² | - |
| 1787628922 | 8.33° C | 79% | 709.4 hPa | 0 mm | - | 0 W/m² | - |
| 1787628321 | 8.33° C | 80% | 709.7 hPa | 0 mm | - | 0 W/m² | - |
| 1787627494 | 8.33° C | 79% | 709.7 hPa | 0 mm | - | 0 W/m² | - |
| 1787627121 | 8.33° C | 79% | 709.8 hPa | 0 mm | - | 0 W/m² | - |
| 1787626522 | 8.33° C | 80% | 709.4 hPa | 0 mm | - | 0 W/m² | - |
| 1787625694 | 8.33° C | 81% | 709.3 hPa | 0 mm | - | 0 W/m² | - |
| 1787625322 | 8.33° C | 81% | 709.7 hPa | 0 mm | - | 0 W/m² | - |
| 1787624721 | 8.33° C | 81% | 709.8 hPa | 0 mm | - | 0 W/m² | - |
| 1787623894 | 8.33° C | 82% | 709.9 hPa | 0 mm | - | 0 W/m² | - |
| 1787623521 | 8.33° C | 81% | 710 hPa | 0 mm | - | 0 W/m² | - |
* Rain latest hour (hover to see other rain measurements)
** Current wind speed in m/s (hover to see current wind gust speed)